TimeCST,TemperatureF,Dew PointF,Humidity,Sea Level PressureIn,VisibilityMPH,Wind Direction,Wind SpeedMPH,Gust SpeedMPH,PrecipitationIn,Events,Conditions,WindDirDegrees,DateUTC
12:56 AM,27.1,17.1,66,30.28,10.0,NNW,5.8,-,N/A,,Clear,330,2012-12-22 06:56:00
1:56 AM,26.1,17.1,69,30.28,10.0,NNW,6.9,-,N/A,,Clear,330,2012-12-22 07:56:00
2:56 AM,23.0,17.1,78,30.30,10.0,WNW,4.6,-,N/A,,Clear,300,2012-12-22 08:56:00
3:56 AM,24.1,17.1,75,30.32,10.0,WNW,4.6,-,N/A,,Clear,300,2012-12-22 09:56:00
4:56 AM,22.1,17.1,81,30.32,10.0,Calm,Calm,-,N/A,,Clear,0,2012-12-22 10:56:00
5:56 AM,20.1,16.2,85,30.33,10.0,Calm,Calm,-,N/A,,Clear,0,2012-12-22 11:56:00
6:56 AM,21.0,17.1,85,30.34,10.0,Calm,Calm,-,N/A,,Clear,0,2012-12-22 12:56:00
7:56 AM,24.1,19.0,81,30.36,10.0,WSW,3.5,-,N/A,,Clear,250,2012-12-22 13:56:00
8:56 AM,29.1,20.1,69,30.35,10.0,Calm,Calm,-,N/A,,Clear,0,2012-12-22 14:56:00
9:56 AM,32.9,21.0,62,30.33,10.0,SSW,3.5,-,N/A,,Clear,200,2012-12-22 15:56:00
10:56 AM,34.9,20.1,55,30.32,10.0,South,4.6,-,N/A,,Clear,190,2012-12-22 16:56:00
11:56 AM,37.9,21.0,51,30.29,10.0,Variable,3.5,-,N/A,,Clear,0,2012-12-22 17:56:00
12:56 PM,37.9,20.1,49,30.26,10.0,Variable,3.5,-,N/A,,Clear,0,2012-12-22 18:56:00
1:56 PM,39.9,22.1,49,30.22,10.0,SSE,8.1,-,N/A,,Clear,160,2012-12-22 19:56:00
2:56 PM,41.0,21.0,45,30.22,10.0,SSW,10.4,-,N/A,,Clear,200,2012-12-22 20:56:00
3:56 PM,39.9,23.0,51,30.20,10.0,South,5.8,-,N/A,,Clear,180,2012-12-22 21:56:00
4:56 PM,37.9,22.1,53,30.19,10.0,SE,4.6,-,N/A,,Clear,140,2012-12-22 22:56:00
5:56 PM,36.0,21.0,55,30.17,10.0,SSE,6.9,-,N/A,,Clear,150,2012-12-22 23:56:00
6:56 PM,36.0,20.1,53,30.15,10.0,SSE,9.2,-,N/A,,Clear,160,2012-12-23 00:56:00
7:56 PM,34.0,22.1,62,30.12,10.0,South,9.2,-,N/A,,Clear,170,2012-12-23 01:56:00
8:56 PM,34.0,21.0,59,30.09,10.0,SSE,8.1,-,N/A,,Clear,160,2012-12-23 02:56:00
9:56 PM,34.0,21.0,59,30.09,10.0,SSE,6.9,-,N/A,,Clear,160,2012-12-23 03:56:00
10:56 PM,32.9,21.0,62,30.08,10.0,South,5.8,-,N/A,,Clear,170,2012-12-23 04:56:00
11:56 PM,32.9,21.0,62,30.06,10.0,South,6.9,-,N/A,,Clear,170,2012-12-23 05:56:00